Location: Escondida
(34.1015°N, 106.8964°W)
Time: 22:09:56
(UTC+00:00)

Daily predictions for brighter satellites

Satellite Brightness Start Highest point End
(mag) Time Altitude Azimuth Time Altitude Azimuth Time Altitude Azimuth
OAO 2 Rocket 3.6 12:05:30 48° SW 12:06:46 66° SSE 12:11:53 10° E
Cosmos 2369 3.6 12:08:44 52° WNW 12:09:49 62° WSW 12:15:22 10° S
NOSS 3-1 (C) 4.3 12:04:55 22° NNW 12:10:27 76° ENE 12:19:45 10° SE
FengYun 1-2 T 4.2 12:09:39 10° N 12:15:11 57° WNW 12:20:40 10° SSW
SL-24 R/B 4.2 12:10:18 10° NNE 12:15:17 82° ESE 12:19:36 10° S
Cosmos 1898 Rocket 3.4 12:14:12 48° NW 12:15:26 62° WSW 12:20:38 10° S
Cosmos 1726 Rocket 3.3 12:21:17 38° NNW 12:22:49 74° W 12:26:55 10° S
Helios 1A Rocket 4.3 12:20:32 10° SE 12:23:28 29° ENE 12:26:25 10° N
IRS-1D 3.4 12:19:39 10° N 12:24:39 66° WNW 12:29:44 10° SSW
[s.n.66875] 4.2 12:23:29 12° S 12:24:43 16° SE 12:26:22 10° E
[s.n.66873] 4.2 12:24:08 12° S 12:25:25 16° SE 12:27:06 10° E
[s.n.66876] 4.2 12:24:36 12° S 12:25:53 16° SE 12:27:35 10° E
OAO 3 Copernicus 4.2 12:24:50 42° W 12:26:32 83° N 12:31:33 10° E
[s.n.66874] 4.2 12:25:21 12° S 12:26:40 16° SE 12:28:25 10° E
[s.n.66872] 4.2 12:26:07 12° S 12:27:28 17° SE 12:29:14 10° E
[s.n.66871] 4.2 12:26:38 12° S 12:28:00 17° SE 12:29:47 10° E
Cosmos 1627 Rocket 4.3 12:22:39 10° SSW 12:28:44 74° W 12:34:51 10° N
[s.n.66870] 4.2 12:27:25 12° S 12:28:50 17° SE 12:30:39 10° E
Tiangong -1.8 12:29:06 54° SSW 12:29:06 54° SSW 12:32:14 10° SE
[s.n.66869] 4.2 12:28:09 12° S 12:29:37 18° SE 12:31:28 10° E
Cosmos 2360 Rocket 3.7 12:24:42 10° N 12:29:44 32° ENE 12:34:43 10° SE
[s.n.66868] 4.1 12:28:46 12° S 12:30:14 18° SE 12:32:06 10° E
[s.n.66867] 4.1 12:29:31 12° S 12:31:02 18° SE 12:32:55 10° E
[s.n.66866] 4.1 12:30:13 12° S 12:31:46 19° SE 12:33:41 10° E
[s.n.66865] 4.1 12:30:44 12° S 12:32:19 19° SE 12:34:15 10° E
CZ-4 R/B 3.7 12:28:16 10° N 12:32:49 60° WNW 12:37:21 10° SSW
[s.n.66860] 4.0 12:31:22 12° S 12:32:59 19° SE 12:34:56 10° E
Cosmos 405 Rocket 3.5 12:29:58 10° SSE 12:33:02 43° E 12:36:10 10° NNE
OAO 3 Rocket 3.4 12:30:37 25° SW 12:33:10 62° SSE 12:37:49 10° E
[s.n.66864] 4.0 12:31:59 12° S 12:33:37 19° SE 12:35:34 10° E
COSMO-SKYMED 1 2.9 12:30:00 10° SSE 12:34:01 59° ENE 12:38:04 10° N
[s.n.66863] 4.0 12:32:33 12° S 12:34:12 20° SE 12:36:11 10° E
Cosmos 1626 Rocket 4.4 12:30:00 10° S 12:34:16 52° E 12:38:33 10° NNE
Cosmos 1937 Rocket 3.5 12:31:53 26° NW 12:34:34 56° WSW 12:39:34 10° S
[s.n.66861] 4.0 12:33:20 12° S 12:35:02 20° SE 12:37:02 10° E
[s.n.66862] 3.9 12:33:56 12° S 12:35:41 21° SE 12:37:42 10° E
Cosmos 2333 Rocket 2.8 12:30:26 10° NNW 12:36:07 58° ENE 12:41:43 10° SE
[s.n.66859] 3.9 12:34:37 12° SSW 12:36:23 21° SE 12:38:25 10° E
Cosmos 858 Rocket 4.4 12:32:30 16° NNW 12:36:42 80° WSW 12:41:53 10° SSE
[s.n.66858] 3.9 12:35:14 12° SSW 12:37:03 21° SE 12:39:07 10° E
Cosmos-2242 3.4 12:32:58 10° N 12:37:08 62° E 12:41:15 10° SSE
[s.n.66857] 3.8 12:35:49 11° SSW 12:37:38 21° SE 12:39:42 10° E
[s.n.66856] 3.8 12:36:21 11° SSW 12:38:12 22° SE 12:40:16 10° E
USA 59 Rocket 0.7 12:36:57 33° WNW 12:38:26 45° WSW 12:43:59 10° S
[s.n.66855] 3.8 12:36:59 11° SSW 12:38:52 22° SE 12:40:58 10° E
NOSS 2-1 (D) 4.0 12:37:28 33° WNW 12:39:04 49° WSW 12:44:34 10° SSE
[s.n.66854] 3.8 12:37:33 11° SSW 12:39:27 22° SE 12:41:34 10° E
Cosmos 1892 Rocket 4.1 12:35:57 10° SW 12:39:54 34° W 12:43:56 10° NNW
[s.n.66853] 3.7 12:38:14 11° SSW 12:40:11 23° SE 12:42:18 10° E
[s.n.66852] 3.7 12:38:58 11° SSW 12:40:56 23° SE 12:43:05 10° E
Okean 1 3.7 12:37:31 10° N 12:41:00 54° E 12:44:29 10° SSE
[s.n.66851] 3.7 12:39:28 11° SSW 12:41:27 24° SE 12:43:37 10° E
[s.n.66850] 3.7 12:40:00 11° SSW 12:42:00 24° SE 12:44:11 10° E
[s.n.66849] 3.6 12:40:40 11° SSW 12:42:43 24° SE 12:44:54 10° E
[s.n.66848] 3.6 12:41:10 11° SSW 12:43:15 25° SE 12:45:27 10° E
Cosmos 2219 Rocket 4.1 12:41:34 10° N 12:46:16 26° ENE 12:50:54 10° ESE
PKM 3.8 12:47:23 34° W 12:47:53 38° SW 12:50:37 10° SSE
COSMOS 2455 3.6 12:47:28 22° WNW 12:50:10 32° WSW 12:55:23 10° SSW
Cosmos 2026 Rocket 4.2 12:45:18 10° SSW 12:51:01 44° W 12:56:48 10° N
IGS 5A 3.8 12:48:05 10° NNE 12:52:04 66° E 12:56:01 10° S
NOSS 2-1 (E) 4.1 12:50:25 24° WNW 12:52:43 46° WSW 12:58:08 10° S
Cosmos 2322 Rocket 2.7 12:48:34 10° NNW 12:54:12 61° ENE 12:59:47 10° SSE
Cosmos 1814 Rocket 4.1 12:49:47 10° SSW 12:54:51 54° WNW 13:00:02 10° N
IRIDIUM 104 4.5 12:50:51 10° S 12:56:02 77° E 13:01:16 10° N
ATLAS 2AS CENTAUR R/B 2.8 12:48:57 10° SSW 12:56:06 87° ESE 13:03:04 10° NNE
Centaur AC-119 4.0 12:53:06 11° WSW 12:57:42 35° S 13:02:10 10° ESE
Meteor 2-2 Rocket 4.2 12:52:35 10° NNW 12:58:19 77° W 13:04:09 10° S
IRIDIUM 114 4.3 12:59:57 10° S 13:05:10 85° W 13:10:25 10° N
CBERS-1 4.0 13:05:27 10° NNE 13:10:33 87° WNW 13:15:38 10° SSW
Cosmos 1602 Rocket 3.8 13:08:41 10° S 13:13:06 77° E 13:17:32 10° N
IRIDIUM 103 4.3 13:09:09 10° S 13:14:19 69° W 13:19:32 10° N
SMAP 3.6 13:10:26 10° NNE 13:15:03 63° E 13:19:39 10° S
Cosmos 158 Rocket 4.5 13:13:25 10° SW 13:18:22 39° WNW 13:23:17 10° N
NOSS 3-1 (A) 4.3 13:11:38 10° NNW 13:19:30 87° WSW 13:28:54 10° SSE
SL-16 R/B 2.8 13:17:39 10° NW 13:22:51 38° WSW 13:28:02 10° S
Cosmos 44 3.7 13:19:30 10° SSW 13:23:53 62° ESE 13:28:32 10° NE
Cosmos 2058 Rocket 3.9 13:20:44 10° NNW 13:24:34 30° W 13:28:21 10° SSW
Cosmos 1553 Rocket 4.1 13:19:01 10° NNW 13:25:23 70° W 13:31:43 10° S
CZ-3 R/B 4.0 13:16:56 10° W 13:27:03 20° SW 13:32:18 10° S
Cosmos 2151 2.8 13:25:17 10° SSW 13:29:19 69° W 13:33:24 10° N
Thor Agena Rocket 3.4 13:27:31 10° N 13:32:33 79° WNW 13:37:33 10° SSW
Cosmos 1743 2.9 13:30:09 10° SSW 13:33:07 34° W 13:36:07 10° NNW
